Time,TemperatureF,DewpointF,PressureIn,WindDirection,WindDirectionDegrees,WindSpeedMPH,WindSpeedGustMPH,Humidity,HourlyPrecipIn,Conditions,Clouds,dailyrainin,SoftwareType,DateUTC
2013-02-14 00:02:00,34.0,28.0,29.71,SW,225,0.0,0.0,80,0.00,,,0.00,,2013-02-14 05:02:00,
2013-02-14 00:11:00,34.0,28.0,29.71,SW,225,0.0,0.0,80,0.00,,,0.00,,2013-02-14 05:11:00,
2013-02-14 00:22:00,34.0,28.0,29.71,SW,225,0.0,0.0,80,0.00,,,0.00,,2013-02-14 05:22:00,
2013-02-14 00:32:00,34.0,28.0,29.71,SW,225,0.0,0.0,80,0.00,,,0.00,,2013-02-14 05:32:00,
2013-02-14 00:42:00,34.0,28.0,29.71,SW,225,0.0,0.0,80,0.00,,,0.00,,2013-02-14 05:42:00,
2013-02-14 00:52:00,34.0,28.0,29.68,North,0,0.0,0.0,80,0.00,,,0.00,,2013-02-14 05:52:00,
2013-02-14 01:02:00,35.0,29.0,29.68,NNW,338,0.0,0.0,80,0.00,,,0.00,,2013-02-14 06:02:00,
2013-02-14 01:11:00,35.0,29.0,29.68,NNW,338,0.0,0.0,79,0.00,,,0.00,,2013-02-14 06:11:00,
2013-02-14 01:21:00,35.0,29.0,29.68,NNW,338,0.0,0.0,79,0.00,,,0.00,,2013-02-14 06:21:00,
2013-02-14 01:32:00,35.0,29.0,29.71,NNW,338,0.0,0.0,80,0.00,,,0.00,,2013-02-14 06:32:00,
2013-02-14 01:42:00,35.0,29.0,29.71,NNW,338,0.0,0.0,80,0.00,,,0.00,,2013-02-14 06:42:00,
2013-02-14 01:51:00,34.0,28.0,29.68,NNW,338,0.0,0.0,80,0.00,,,0.00,,2013-02-14 06:51:00,
2013-02-14 02:01:00,34.0,29.0,29.71,NNW,338,0.0,0.0,82,0.00,,,0.00,,2013-02-14 07:01:00,
2013-02-14 02:11:00,34.0,29.0,29.71,NNW,338,0.0,0.0,83,0.00,,,0.00,,2013-02-14 07:11:00,
2013-02-14 02:21:00,34.0,29.0,29.71,NNW,338,0.0,0.0,83,0.00,,,0.00,,2013-02-14 07:21:00,
2013-02-14 02:32:00,34.0,29.0,29.68,NNW,338,0.0,0.0,83,0.00,,,0.00,,2013-02-14 07:32:00,
2013-02-14 02:42:00,34.0,29.0,29.68,NNW,338,0.0,0.0,83,0.00,,,0.00,,2013-02-14 07:42:00,
2013-02-14 02:51:00,34.0,30.0,29.68,NNW,338,0.0,0.0,84,0.00,,,0.00,,2013-02-14 07:51:00,
2013-02-14 03:01:00,34.0,30.0,29.68,NNW,338,0.0,0.0,85,0.00,,,0.00,,2013-02-14 08:01:00,
2013-02-14 03:11:00,34.0,30.0,29.68,NNW,338,0.0,0.0,85,0.00,,,0.00,,2013-02-14 08:11:00,
2013-02-14 03:21:00,34.0,30.0,29.68,NNW,338,0.0,0.0,85,0.00,,,0.00,,2013-02-14 08:21:00,
2013-02-14 03:32:00,34.0,30.0,29.68,NNW,338,0.0,0.0,85,0.00,,,0.00,,2013-02-14 08:32:00,
2013-02-14 03:43:00,34.0,30.0,29.68,NNW,338,0.0,0.0,85,0.00,,,0.00,,2013-02-14 08:43:00,
2013-02-14 03:52:00,34.0,30.0,29.68,North,0,0.0,0.0,86,0.00,,,0.00,,2013-02-14 08:52:00,
2013-02-14 04:02:00,34.0,30.0,29.68,North,0,0.0,0.0,86,0.00,,,0.00,,2013-02-14 09:02:00,
2013-02-14 04:11:00,34.0,30.0,29.68,North,0,0.0,0.0,86,0.00,,,0.00,,2013-02-14 09:11:00,
2013-02-14 04:21:00,34.0,30.0,29.68,North,0,0.0,0.0,86,0.00,,,0.00,,2013-02-14 09:21:00,
2013-02-14 04:32:00,34.0,30.0,29.68,NNE,22,0.0,0.0,86,0.00,,,0.00,,2013-02-14 09:32:00,
2013-02-14 04:42:00,34.0,30.0,29.68,NNE,22,0.0,0.0,86,0.00,,,0.00,,2013-02-14 09:42:00,
2013-02-14 04:51:00,34.0,30.0,29.68,NNE,22,0.0,0.0,86,0.00,,,0.00,,2013-02-14 09:51:00,
2013-02-14 05:02:00,34.0,31.0,29.71,NNE,22,0.0,0.0,87,0.00,,,0.00,,2013-02-14 10:02:00,
2013-02-14 05:11:00,34.0,31.0,29.71,NNE,22,0.0,0.0,87,0.00,,,0.00,,2013-02-14 10:11:00,
2013-02-14 05:21:00,34.0,31.0,29.71,NNE,22,0.0,0.0,87,0.00,,,0.00,,2013-02-14 10:21:00,
2013-02-14 05:32:00,34.0,31.0,29.71,NNW,338,0.0,0.0,87,0.00,,,0.00,,2013-02-14 10:32:00,
2013-02-14 05:42:00,34.0,31.0,29.71,NNW,338,0.0,0.0,87,0.00,,,0.00,,2013-02-14 10:42:00,
2013-02-14 05:52:00,34.0,31.0,29.71,NNW,338,0.0,0.0,87,0.00,,,0.00,,2013-02-14 10:52:00,
2013-02-14 06:02:00,34.0,31.0,29.71,NNW,338,0.0,0.0,87,0.00,,,0.00,,2013-02-14 11:02:00,
2013-02-14 06:11:00,34.0,31.0,29.74,North,0,0.0,0.0,87,0.00,,,0.00,,2013-02-14 11:11:00,
2013-02-14 06:22:00,34.0,31.0,29.74,North,0,0.0,0.0,87,0.00,,,0.00,,2013-02-14 11:22:00,
2013-02-14 06:32:00,33.0,29.0,29.74,NE,45,0.0,0.0,86,0.00,,,0.00,,2013-02-14 11:32:00,
2013-02-14 06:42:00,33.0,29.0,29.74,NE,45,0.0,0.0,86,0.00,,,0.00,,2013-02-14 11:42:00,
2013-02-14 06:52:00,33.0,29.0,29.74,NE,45,0.0,0.0,86,0.00,,,0.00,,2013-02-14 11:52:00,
2013-02-14 07:02:00,33.0,29.0,29.74,NE,45,0.0,0.0,85,0.00,,,0.00,,2013-02-14 12:02:00,
2013-02-14 07:12:00,33.0,29.0,29.74,NE,45,0.0,0.0,85,0.00,,,0.00,,2013-02-14 12:12:00,
2013-02-14 07:22:00,33.0,29.0,29.74,North,0,0.0,0.0,85,0.00,,,0.00,,2013-02-14 12:22:00,
2013-02-14 07:32:00,32.0,28.0,29.77,North,0,0.0,0.0,85,0.00,,,0.00,,2013-02-14 12:32:00,
2013-02-14 07:42:00,33.0,29.0,29.77,NNW,338,0.0,0.0,85,0.00,,,0.00,,2013-02-14 12:42:00,
2013-02-14 07:53:00,33.0,29.0,29.77,NNW,338,0.0,0.0,85,0.00,,,0.00,,2013-02-14 12:53:00,
2013-02-14 08:02:00,33.0,29.0,29.77,North,0,0.0,0.0,86,0.00,,,5.19,,2013-02-14 13:02:00,
2013-02-14 08:11:00,33.0,29.0,29.77,North,0,0.0,0.0,86,0.00,,,5.19,,2013-02-14 13:11:00,
2013-02-14 08:21:00,33.0,29.0,29.77,North,0,0.0,0.0,86,0.00,,,5.19,,2013-02-14 13:21:00,
2013-02-14 08:32:00,34.0,30.0,29.80,North,0,0.0,0.0,86,0.00,,,0.00,,2013-02-14 13:32:00,
2013-02-14 08:42:00,34.0,30.0,29.80,North,0,0.0,0.0,86,0.00,,,0.00,,2013-02-14 13:42:00,
2013-02-14 08:52:00,34.0,30.0,29.80,North,0,0.0,0.0,86,0.00,,,0.00,,2013-02-14 13:52:00,
2013-02-14 09:01:00,34.0,30.0,29.80,North,0,0.0,0.0,86,0.00,,,0.00,,2013-02-14 14:01:00,
2013-02-14 09:11:00,35.0,31.0,29.83,WNW,292,0.0,0.0,86,0.00,,,0.00,,2013-02-14 14:11:00,
2013-02-14 09:21:00,35.0,31.0,29.83,WNW,292,0.0,0.0,86,0.00,,,0.00,,2013-02-14 14:21:00,
2013-02-14 09:32:00,35.0,31.0,29.83,NNW,338,0.0,6.0,86,0.00,,,0.00,,2013-02-14 14:32:00,
2013-02-14 09:42:00,35.0,31.0,29.83,NNW,338,0.0,6.0,86,0.00,,,0.00,,2013-02-14 14:42:00,
2013-02-14 09:52:00,35.0,31.0,29.83,NNW,338,0.0,6.0,86,0.00,,,0.00,,2013-02-14 14:52:00,
2013-02-14 10:02:00,36.0,32.0,29.83,NW,315,0.0,6.0,86,0.00,,,0.00,,2013-02-14 15:02:00,
2013-02-14 10:11:00,36.0,32.0,29.85,NE,45,0.0,0.0,86,0.00,,,0.00,,2013-02-14 15:11:00,
2013-02-14 10:22:00,36.0,32.0,29.85,NE,45,0.0,0.0,86,0.00,,,0.00,,2013-02-14 15:22:00,
2013-02-14 10:32:00,37.0,33.0,29.85,WNW,292,0.0,7.0,85,0.00,,,0.00,,2013-02-14 15:32:00,
2013-02-14 10:42:00,37.0,33.0,29.85,WNW,292,0.0,7.0,85,0.00,,,0.00,,2013-02-14 15:42:00,
2013-02-14 10:52:00,38.0,34.0,29.85,NNW,338,0.0,2.0,85,0.00,,,0.00,,2013-02-14 15:52:00,
2013-02-14 11:02:00,38.0,34.0,29.85,NNW,338,0.0,6.0,84,0.00,,,0.00,,2013-02-14 16:02:00,
2013-02-14 11:11:00,39.0,35.0,29.85,North,0,0.0,3.0,84,0.00,,,0.00,,2013-02-14 16:11:00,
2013-02-14 11:21:00,39.0,35.0,29.85,North,0,0.0,3.0,84,0.00,,,0.00,,2013-02-14 16:21:00,
2013-02-14 11:32:00,40.0,35.0,29.88,NNW,338,0.0,3.0,81,0.00,,,0.00,,2013-02-14 16:32:00,
2013-02-14 11:42:00,40.0,35.0,29.88,NNW,338,0.0,3.0,81,0.00,,,0.00,,2013-02-14 16:42:00,
2013-02-14 11:51:00,40.0,34.0,29.88,ENE,68,0.0,4.0,80,0.00,,,0.00,,2013-02-14 16:51:00,
2013-02-14 12:01:00,40.0,33.0,29.88,North,0,0.0,10.0,77,0.00,,,0.00,,2013-02-14 17:01:00,
2013-02-14 12:11:00,40.0,33.0,29.88,NNE,22,0.0,5.0,76,0.00,,,0.00,,2013-02-14 17:11:00,
2013-02-14 12:21:00,40.0,33.0,29.88,NNE,22,0.0,5.0,76,0.00,,,0.00,,2013-02-14 17:21:00,
2013-02-14 12:32:00,41.0,32.0,29.88,WNW,292,0.0,7.0,71,0.00,,,0.00,,2013-02-14 17:32:00,
2013-02-14 12:42:00,41.0,32.0,29.88,WNW,292,0.0,7.0,71,0.00,,,0.00,,2013-02-14 17:42:00,
2013-02-14 12:52:00,41.0,32.0,29.88,North,0,0.0,3.0,71,0.00,,,0.00,,2013-02-14 17:52:00,
2013-02-14 13:01:00,43.0,34.0,29.88,NNE,22,0.0,0.0,69,0.00,,,0.00,,2013-02-14 18:01:00,
2013-02-14 13:11:00,43.0,34.0,29.88,NNE,22,0.0,0.0,69,0.00,,,0.00,,2013-02-14 18:11:00,
2013-02-14 13:23:00,42.0,32.0,29.88,NNE,22,0.0,3.0,68,0.00,,,0.00,,2013-02-14 18:23:00,
2013-02-14 13:32:00,42.0,32.0,29.88,NE,45,0.0,0.0,68,0.00,,,0.00,,2013-02-14 18:32:00,
2013-02-14 13:42:00,42.0,32.0,29.88,NE,45,0.0,0.0,68,0.00,,,0.00,,2013-02-14 18:42:00,
2013-02-14 13:51:00,43.0,32.0,29.88,NNW,338,0.0,0.0,66,0.00,,,0.00,,2013-02-14 18:51:00,
2013-02-14 14:02:00,42.0,31.0,29.91,NW,315,0.0,0.0,65,0.00,,,0.00,,2013-02-14 19:02:00,
2013-02-14 14:11:00,43.0,32.0,29.91,ESE,112,0.0,0.0,65,0.00,,,0.00,,2013-02-14 19:11:00,
2013-02-14 14:21:00,43.0,32.0,29.91,ESE,112,0.0,0.0,65,0.00,,,0.00,,2013-02-14 19:21:00,
2013-02-14 14:32:00,44.0,32.0,29.91,SE,135,0.0,0.0,62,0.00,,,0.00,,2013-02-14 19:32:00,
2013-02-14 14:42:00,44.0,32.0,29.91,SE,135,0.0,0.0,62,0.00,,,0.00,,2013-02-14 19:42:00,
2013-02-14 14:52:00,44.0,32.0,29.91,ENE,68,0.0,4.0,62,0.00,,,0.00,,2013-02-14 19:52:00,
2013-02-14 15:01:00,44.0,32.0,29.91,East,90,0.0,0.0,62,0.00,,,0.00,,2013-02-14 20:01:00,
2013-02-14 15:11:00,43.0,31.0,29.91,WSW,248,0.0,0.0,63,0.00,,,0.00,,2013-02-14 20:11:00,
2013-02-14 15:21:00,43.0,31.0,29.91,WSW,248,0.0,0.0,63,0.00,,,0.00,,2013-02-14 20:21:00,
2013-02-14 15:32:00,43.0,32.0,29.91,WSW,248,0.0,5.0,64,0.00,,,0.00,,2013-02-14 20:32:00,
2013-02-14 15:42:00,43.0,32.0,29.91,WSW,248,0.0,5.0,64,0.00,,,0.00,,2013-02-14 20:42:00,
2013-02-14 15:52:00,42.0,31.0,29.91,SSE,158,0.0,0.0,65,0.00,,,0.00,,2013-02-14 20:52:00,
2013-02-14 16:02:00,42.0,31.0,29.94,SSE,158,0.0,5.0,64,0.00,,,0.00,,2013-02-14 21:02:00,
2013-02-14 16:11:00,42.0,31.0,29.94,SSE,158,0.0,5.0,64,0.00,,,0.00,,2013-02-14 21:11:00,
2013-02-14 16:21:00,41.0,30.0,29.94,SSE,158,0.0,4.0,65,0.00,,,0.00,,2013-02-14 21:21:00,
2013-02-14 16:32:00,40.0,30.0,29.94,SSE,158,4.0,4.0,67,0.00,,,0.00,,2013-02-14 21:32:00,
2013-02-14 16:42:00,40.0,30.0,29.94,SSE,158,4.0,4.0,67,0.00,,,0.00,,2013-02-14 21:42:00,
2013-02-14 16:51:00,40.0,30.0,29.94,SSE,158,0.0,0.0,68,0.00,,,0.00,,2013-02-14 21:51:00,
2013-02-14 17:02:00,39.0,30.0,29.94,SSE,158,0.0,3.0,69,0.00,,,0.00,,2013-02-14 22:02:00,
2013-02-14 17:11:00,39.0,30.0,29.94,SSE,158,0.0,0.0,70,0.00,,,0.00,,2013-02-14 22:11:00,
2013-02-14 17:21:00,39.0,30.0,29.94,SSE,158,0.0,0.0,70,0.00,,,0.00,,2013-02-14 22:21:00,
2013-02-14 17:32:00,38.0,30.0,29.97,SSE,158,0.0,0.0,73,0.00,,,0.00,,2013-02-14 22:32:00,
2013-02-14 17:42:00,38.0,30.0,29.97,SSE,158,0.0,0.0,73,0.00,,,0.00,,2013-02-14 22:42:00,
2013-02-14 17:51:00,37.0,29.0,29.97,SSE,158,0.0,0.0,73,0.00,,,0.00,,2013-02-14 22:51:00,
2013-02-14 18:01:00,36.0,28.0,29.97,SSE,158,0.0,0.0,72,0.00,,,0.00,,2013-02-14 23:01:00,
2013-02-14 18:11:00,36.0,28.0,29.97,SSE,158,0.0,0.0,72,0.00,,,0.00,,2013-02-14 23:11:00,
2013-02-14 18:21:00,35.0,27.0,30.00,SSE,158,0.0,0.0,73,0.00,,,0.00,,2013-02-14 23:21:00,
2013-02-14 18:32:00,34.0,27.0,30.00,SSE,158,0.0,0.0,74,0.00,,,0.00,,2013-02-14 23:32:00,
2013-02-14 18:42:00,34.0,27.0,30.00,SSE,158,0.0,0.0,74,0.00,,,0.00,,2013-02-14 23:42:00,
2013-02-14 18:52:00,34.0,27.0,30.00,SSE,158,0.0,0.0,75,0.00,,,0.00,,2013-02-14 23:52:00,
2013-02-14 19:01:00,33.0,26.0,30.00,SSE,158,0.0,0.0,76,0.00,,,0.00,,2013-02-15 00:01:00,
2013-02-14 19:11:00,33.0,26.0,30.00,SSE,158,0.0,0.0,76,0.00,,,0.00,,2013-02-15 00:11:00,
2013-02-14 19:22:00,33.0,27.0,30.00,SSE,158,0.0,0.0,77,0.00,,,0.00,,2013-02-15 00:22:00,
2013-02-14 19:32:00,33.0,27.0,30.00,SSE,158,0.0,0.0,78,0.00,,,0.00,,2013-02-15 00:32:00,
2013-02-14 19:42:00,33.0,27.0,30.00,SSE,158,0.0,0.0,78,0.00,,,0.00,,2013-02-15 00:42:00,
2013-02-14 19:51:00,33.0,27.0,30.00,SSE,158,0.0,0.0,78,0.00,,,0.00,,2013-02-15 00:51:00,
2013-02-14 20:02:00,32.0,26.0,30.00,SSE,158,0.0,0.0,79,0.00,,,0.00,,2013-02-15 01:02:00,
2013-02-14 20:11:00,32.0,26.0,30.00,SSE,158,0.0,0.0,79,0.00,,,0.00,,2013-02-15 01:11:00,
2013-02-14 20:21:00,32.0,26.0,30.00,SSE,158,0.0,0.0,79,0.00,,,0.00,,2013-02-15 01:21:00,
2013-02-14 20:32:00,32.0,26.0,30.00,SSE,158,0.0,0.0,79,0.00,,,0.00,,2013-02-15 01:32:00,
2013-02-14 20:41:00,32.0,26.0,30.00,SSE,158,0.0,0.0,79,0.00,,,0.00,,2013-02-15 01:41:00,
2013-02-14 20:51:00,32.0,26.0,30.00,SSE,158,0.0,0.0,79,0.00,,,0.00,,2013-02-15 01:51:00,
2013-02-14 21:01:00,32.0,27.0,30.00,SSE,158,0.0,0.0,80,0.00,,,0.00,,2013-02-15 02:01:00,
2013-02-14 21:11:00,31.0,26.0,30.00,SSE,158,0.0,0.0,80,0.00,,,0.00,,2013-02-15 02:11:00,
2013-02-14 21:21:00,31.0,26.0,30.00,SSE,158,0.0,0.0,80,0.00,,,0.00,,2013-02-15 02:21:00,
2013-02-14 21:32:00,31.0,26.0,30.03,SSE,158,0.0,0.0,80,0.00,,,0.00,,2013-02-15 02:32:00,
2013-02-14 21:41:00,31.0,26.0,30.03,SSE,158,0.0,0.0,80,0.00,,,0.00,,2013-02-15 02:41:00,
2013-02-14 21:52:00,31.0,26.0,30.00,SSE,158,0.0,0.0,80,0.00,,,0.00,,2013-02-15 02:52:00,
2013-02-14 22:02:00,31.0,26.0,30.00,SSE,158,0.0,0.0,80,0.00,,,0.00,,2013-02-15 03:02:00,
2013-02-14 22:11:00,30.0,25.0,30.03,SSE,158,0.0,0.0,81,0.00,,,0.00,,2013-02-15 03:11:00,
2013-02-14 22:22:00,30.0,25.0,30.03,SSE,158,0.0,0.0,81,0.00,,,0.00,,2013-02-15 03:22:00,
2013-02-14 22:32:00,30.0,25.0,30.03,SSE,158,0.0,0.0,81,0.00,,,0.00,,2013-02-15 03:32:00,
2013-02-14 22:42:00,30.0,25.0,30.03,SSE,158,0.0,0.0,81,0.00,,,0.00,,2013-02-15 03:42:00,
2013-02-14 22:51:00,30.0,25.0,30.00,SSE,158,0.0,0.0,81,0.00,,,0.00,,2013-02-15 03:51:00,
2013-02-14 23:01:00,29.0,24.0,30.00,SSE,158,0.0,0.0,81,0.00,,,0.00,,2013-02-15 04:01:00,
2013-02-14 23:11:00,29.0,24.0,30.00,SSE,158,0.0,0.0,81,0.00,,,0.00,,2013-02-15 04:11:00,
2013-02-14 23:21:00,29.0,24.0,30.00,SSE,158,0.0,0.0,80,0.00,,,0.00,,2013-02-15 04:21:00,
2013-02-14 23:32:00,29.0,24.0,30.03,SSE,158,0.0,0.0,81,0.00,,,0.00,,2013-02-15 04:32:00,
2013-02-14 23:42:00,29.0,24.0,30.03,SSE,158,0.0,0.0,81,0.00,,,0.00,,2013-02-15 04:42:00,
2013-02-14 23:52:00,29.0,24.0,30.03,SSE,158,0.0,0.0,81,0.00,,,0.00,,2013-02-15 04:52:00,